Flag for U.S.A. Weather past 2 weeks in Norfolk, Virginia, U.S.A.

Now
65 °F

Passing clouds.


Feels Like: 65 °F
Forecast: 63 / 83 °F
Wind: No wind

Location: Norfolk Naval Air Station

Current Time: Aug 29, 2015 at 4:04:43 AM

Latest Report: Aug 29, 2015 at 2:59 AM


Visibility: 10 mi

Pressure: 30.20 "Hg

Humidity: 81%

Dew point: 59 °F

Location of NorfolkLocation

Historic Weather in Norfolk — Graph

°F

Norfolk temperature yesterday

Maximum temperature yesterday: 83 °F (at 2:59 PM)
Minimum temperature yesterday: 65 °F (at 11:59 PM)
Average temperature yesterday: 76 °F

Past Weeks' High & Low Weather Summary

 TemperatureHumidityPressure
High89 °F (Aug 20, 1:59 PM)97% (Aug 21, 1:59 AM)30.22 "Hg (Aug 21, 1:59 AM)
Low48 °F (Aug 22, 3:59 AM)38% (Aug 14, 12:59 PM)29.86 "Hg (Aug 24, 6:59 PM)
Average77 °F69%30.05 "Hg
* Reported Aug 14 2:59 AM — Aug 29 2:59 AM, Norfolk, Weather by CustomWeather, © 2015

Note: Actual official high and low records may vary slightly from our data, if they occured in-between our weather recording intervals... More about our weather records

Advertising

Norfolk weather history for previous 24 hours

 ConditionsComfort  
Time TempWeatherWind HumidityBarometerVisibility
2:59 AM
Sat, Aug 29
65 °FPassing clouds.No wind81%30.20 "Hg10 mi
1:59 AM64 °FPassing clouds.No wind84%30.20 "Hg10 mi
12:59 AM65 °FPassing clouds.No wind81%30.22 "Hg10 mi
11:59 PM
Fri, Aug 28
65 °FPassing clouds.No wind81%30.21 "Hg10 mi
10:59 PM66 °FPassing clouds.No wind78%30.21 "Hg10 mi
9:59 PM68 °FPassing clouds.No wind73%30.21 "Hg10 mi
8:59 PM73 °FPassing clouds.3 mph62%30.19 "Hg10 mi
7:59 PM74 °FPassing clouds.5 mph62%30.17 "Hg10 mi
6:59 PM77 °FPassing clouds.7 mph52%30.17 "Hg10 mi
5:59 PM79 °FPassing clouds.7 mph48%30.17 "Hg10 mi
4:59 PM81 °FScattered clouds.7 mph42%30.17 "Hg10 mi
3:59 PM81 °FScattered clouds.12 mph42%30.18 "Hg10 mi
2:59 PM83 °FScattered clouds.8 mph43%30.19 "Hg10 mi
1:59 PM82 °FScattered clouds.9 mph43%30.20 "Hg10 mi
12:59 PM81 °FScattered clouds.13 mph49%30.21 "Hg10 mi
11:59 AM81 °FScattered clouds.12 mph47%30.22 "Hg10 mi
10:59 AM81 °FScattered clouds.12 mph49%30.22 "Hg10 mi
9:59 AM80 °FPassing clouds.12 mph49%30.20 "Hg10 mi
8:59 AM78 °FPassing clouds.9 mph58%30.17 "Hg10 mi
7:59 AM75 °FScattered clouds.7 mph64%30.16 "Hg10 mi
6:59 AM73 °FPassing clouds.7 mph66%30.14 "Hg10 mi
5:59 AM73 °FPartly cloudy.7 mph57%30.12 "Hg10 mi
4:59 AM74 °FPassing clouds.7 mph53%30.12 "Hg10 mi
Weather by CustomWeather, © 2015

See weather overviewHow to use our weather pages